Date,TemperatureHighF,TemperatureAvgF,TemperatureLowF,DewpointHighF,DewpointAvgF,DewpointLowF,HumidityHigh,HumidityAvg,HumidityLow,PressureMaxIn,PressureMinIn,WindSpeedMaxMPH,WindSpeedAvgMPH,GustSpeedMaxMPH,PrecipitationSumIn
2013-1-1,61,49,36,37,23,14,85,44,20,30.10,29.17,14,4,30,0.00
2013-1-2,68,58,52,21,18,14,23,21,16,30.05,29.94,19,7,30,0.00
2013-1-3,68,59,53,20,18,15,23,20,15,30.10,29.96,15,7,24,0.00
2013-1-4,78,55,40,29,19,8,54,26,13,31.18,29.22,12,2,18,0.00
2013-1-5,72,51,36,37,27,18,66,43,14,30.19,30.03,4,1,7,0.00
2013-1-6,62,48,42,45,41,33,96,76,47,30.10,29.92,9,1,14,0.02
2013-1-7,74,56,46,36,30,20,66,41,15,30.01,29.84,14,3,25,0.00
2013-1-8,82,63,51,40,32,18,64,34,15,30.01,29.87,10,2,17,0.00
2013-1-9,73,58,47,48,39,35,92,54,26,30.01,29.88,4,1,8,3.01
2013-1-10,59,48,40,46,33,20,90,59,26,30.00,29.79,10,2,19,0.00
2013-1-11,61,45,34,30,24,18,65,44,25,30.10,29.92,10,2,21,0.00
2013-1-12,64,46,36,27,22,15,61,42,18,31.02,29.92,10,2,16,0.00
2013-1-13,65,45,32,26,19,6,68,39,18,30.08,29.91,11,2,18,0.00
2013-1-14,55,44,36,15,8,0,25,22,20,30.24,30.06,17,6,34,0.05
2013-1-15,66,52,42,22,14,7,25,22,18,30.34,30.19,12,4,23,0.00
2013-1-16,72,61,52,24,20,16,27,21,15,30.26,30.01,19,6,32,0.00
2013-1-17,74,66,61,24,19,18,20,16,13,30.06,29.94,22,9,34,0.00
2013-1-18,75,66,60,26,19,18,21,17,13,30.04,29.93,19,8,29,0.00
2013-1-19,78,67,61,26,20,18,19,17,13,30.11,29.99,14,7,24,0.00
2013-1-20,78,68,62,26,20,18,19,16,13,30.08,29.93,15,7,26,0.00
2013-1-21,80,70,64,26,21,18,18,15,13,30.03,29.93,13,6,22,0.00
2013-1-22,89,64,48,31,21,14,26,19,12,30.05,29.92,8,1,14,0.00
2013-1-23,77,62,53,48,32,20,83,35,19,30.10,29.94,7,1,11,0.06
2013-1-24,61,53,41,56,51,32,98,95,38,30.11,29.91,2,0,4,0.98
2013-1-25,61,59,55,56,52,48,96,79,62,30.05,29.75,9,4,17,0.33
2013-1-26,79,62,52,55,53,51,98,74,43,30.03,29.63,8,2,14,1.50
2013-1-27,60,52,48,52,44,22,99,77,33,30.04,29.96,11,2,24,0.03
2013-1-28,60,50,46,32,29,24,54,43,27,30.20,30.03,14,3,21,0.00
2013-1-29,63,50,39,41,35,30,79,58,32,30.25,30.11,8,1,15,0.00
2013-1-30,75,54,40,45,39,35,90,60,26,30.34,30.18,6,1,9,0.00
2013-1-31,79,62,45,42,36,31,74,43,19,30.29,30.06,11,2,21,0.00
2013-2-1,79,62,48,47,40,32,67,45,19,30.19,30.08,7,1,12,0.00
2013-2-2,77,64,54,45,39,31,63,42,22,30.20,30.10,8,1,13,0.00
2013-2-4,80,63,45,52,44,37,80,55,24,30.08,29.92,6,1,8,0.00
2013-2-5,60,51,44,51,47,41,99,87,70,30.10,29.97,5,1,8,0.00
2013-2-6,70,54,44,50,46,43,98,77,43,30.13,29.97,6,1,8,0.00
2013-2-7,63,51,41,49,44,40,97,80,56,30.15,29.98,6,1,9,0.02
2013-2-8,56,45,37,44,38,35,97,78,51,30.00,29.84,10,1,16,0.21
2013-2-9,59,45,34,39,35,31,92,69,36,30.12,29.96,6,1,10,0.00
2013-2-10,57,46,38,42,39,35,95,77,55,30.12,29.98,7,1,10,0.00
2013-2-11,64,50,38,37,26,14,88,46,18,30.27,30.08,16,2,21,0.00
2013-2-12,52,42,36,32,29,23,70,59,44,30.30,30.26,3,1,4,0.00
2013-2-13,75,53,38,44,33,23,72,51,15,30.29,30.09,6,1,10,0.00
2013-2-14,78,60,41,37,30,20,74,39,14,30.19,30.02,12,2,20,0.00
2013-2-15,79,70,58,29,23,18,33,17,13,30.19,30.09,15,5,28,0.00
2013-2-16,83,66,53,33,23,18,33,20,12,30.18,29.97,8,1,9,0.00
2013-2-17,75,57,42,49,34,23,89,47,17,30.04,29.86,6,1,8,0.00
2013-2-18,67,54,47,48,45,43,88,73,44,30.06,29.90,5,1,8,0.00
2013-2-19,51,48,42,47,42,40,94,81,69,29.98,29.72,6,1,10,0.26
2013-2-20,60,47,34,40,31,25,94,57,32,30.00,29.72,11,3,18,0.02
2013-2-21,64,49,36,41,32,20,76,55,20,30.12,29.93,10,2,17,0.00
2013-2-22,70,51,38,35,29,22,71,47,17,30.21,30.07,14,1,14,0.56
2013-2-23,71,54,41,47,34,26,67,47,28,30.19,29.88,15,2,24,0.00
2013-2-24,65,55,46,32,18,13,52,23,17,30.21,30.03,17,4,27,0.00
2013-2-25,73,53,38,32,22,10,58,32,13,30.24,30.04,7,1,11,0.00
2013-2-26,73,60,40,34,23,18,73,29,13,30.11,29.96,14,4,23,0.00
2013-2-27,73,63,54,20,19,15,23,18,13,30.29,30.11,14,5,27,0.00
2013-2-28,80,67,57,26,21,18,21,17,13,30.31,30.20,13,4,20,0.00
2013-3-1,85,71,56,31,24,18,38,18,12,30.30,30.11,12,4,20,0.00
2013-3-2,84,66,51,39,30,23,48,28,13,30.25,30.05,6,1,10,0.00
2013-3-3,73,61,50,48,40,28,83,49,28,30.12,29.94,8,1,11,0.00
2013-3-4,72,58,48,52,49,45,96,74,46,30.11,29.97,6,1,10,0.00
2013-3-5,67,54,46,52,48,43,94,81,56,30.12,29.98,6,1,9,0.00
2013-3-6,58,52,44,48,45,41,89,79,63,30.15,30.00,6,1,10,0.00
2013-3-7,59,52,47,49,44,36,96,76,45,30.01,29.85,8,2,12,0.24
2013-3-8,60,50,42,46,43,28,97,80,54,30.03,29.80,7,1,10,1.67
2013-3-9,68,55,42,45,38,30,93,58,29,30.23,30.02,8,2,13,0.02
2013-3-10,65,58,52,34,26,20,47,30,19,30.26,30.17,7,2,17,0.00
2013-3-11,73,60,41,40,38,32,56,44,27,30.10,29.97,3,1,5,0.00
2013-3-12,88,65,47,47,38,29,72,43,13,30.10,29.95,5,1,8,27.40
2013-3-13,92,68,51,52,38,31,63,38,12,30.11,29.97,6,1,9,0.00
2013-3-14,90,70,52,50,40,34,63,38,14,30.11,29.96,4,1,7,0.00
2013-3-15,86,67,53,54,46,39,71,48,26,30.05,29.88,6,0,8,0.00
2013-3-16,82,66,48,54,50,45,98,61,32,29.97,29.82,5,1,9,0.00
2013-3-17,77,73,51,52,51,46,85,48,41,30.01,29.84,4,0,6,0.00
2013-3-18,67,57,49,53,49,46,90,75,56,30.08,29.97,5,1,9,1.50
2013-3-19,79,60,47,54,50,46,96,73,36,30.14,29.97,6,1,8,0.00
2013-3-20,76,62,52,54,50,47,89,68,37,30.11,29.95,6,1,8,0.00
2013-3-21,81,67,54,53,45,27,78,47,26,29.96,29.76,13,2,19,0.00
2013-3-22,82,65,52,45,31,20,64,30,12,29.93,29.76,8,2,14,0.00
2013-3-23,82,63,44,49,36,19,79,43,12,30.01,29.88,9,2,17,0.00
2013-3-24,83,63,48,51,43,31,90,55,17,30.02,29.84,6,1,11,0.00
2013-3-25,55,52,50,44,41,38,72,66,56,29.97,29.93,4,1,8,0.00
2013-3-26,56,55,53,47,46,46,77,73,69,29.96,29.94,1,0,2,0.00
2013-3-27,64,53,49,52,48,45,92,82,63,29.99,29.93,4,1,6,0.00
2013-3-28,78,60,50,55,51,48,95,76,41,30.07,29.96,7,1,11,0.00
2013-3-29,84,63,49,55,50,44,91,65,28,30.11,29.97,8,1,13,0.00
2013-3-30,80,61,52,54,47,37,92,65,25,30.13,30.00,5,1,9,0.00
2013-3-31,67,58,54,56,51,39,84,76,57,30.13,30.04,8,2,11,0.00
2013-4-1,72,58,48,53,49,46,93,75,48,30.16,30.05,8,1,11,0.00
2013-4-2,79,61,48,54,50,46,95,71,38,30.10,29.92,6,1,10,0.00
2013-4-3,84,65,50,56,50,44,89,63,25,30.09,29.93,7,1,11,0.01
2013-4-4,78,61,52,55,52,47,92,74,45,30.10,29.97,6,2,12,0.00
2013-4-5,78,63,52,57,52,49,94,72,38,30.09,29.95,7,1,13,0.00
2013-4-6,81,64,50,55,51,42,97,68,37,30.07,29.91,8,1,12,0.00
2013-4-7,83,68,59,55,47,36,76,49,24,29.96,29.78,15,2,30,0.00
2013-4-8,65,57,51,53,43,31,88,62,30,29.84,29.66,11,2,18,0.00
2013-4-9,78,61,47,38,30,20,62,34,14,30.06,29.82,9,2,17,0.00
2013-4-10,86,70,50,36,27,18,47,22,12,30.07,29.92,8,2,13,0.00
2013-4-11,79,65,50,51,40,30,77,44,21,30.01,29.73,11,1,14,0.00
2013-4-12,83,64,52,57,52,47,86,67,38,29.89,29.71,8,1,10,0.00
2013-4-13,68,58,52,56,52,48,92,81,61,29.91,29.79,6,1,9,0.00
2013-4-14,66,57,53,53,50,48,90,78,61,29.87,29.78,6,1,9,0.00
2013-4-15,65,57,52,51,48,44,83,74,58,29.88,29.80,6,2,11,0.00
2013-4-16,68,56,48,45,35,22,84,48,24,30.00,29.86,14,2,24,0.00
2013-4-17,74,62,50,25,21,18,36,22,13,30.14,29.99,11,2,16,0.00
2013-4-18,79,65,51,26,21,18,34,19,13,30.21,30.07,13,4,24,0.00
2013-4-19,86,70,54,33,25,19,31,19,12,30.16,29.96,9,2,13,0.00
2013-4-20,92,75,57,50,34,26,39,23,12,30.00,29.82,11,2,16,0.00
2013-4-21,89,71,56,48,43,36,58,39,18,30.01,29.87,8,1,10,0.00
2013-4-22,80,64,52,55,50,42,93,66,32,30.02,29.82,7,1,17,0.00
2013-4-23,81,64,55,55,52,50,88,67,36,29.96,29.80,7,1,11,0.00
2013-4-24,61,58,55,54,52,48,89,82,75,30.00,29.90,6,1,9,0.00
2013-4-25,74,62,53,52,49,45,85,65,41,30.13,29.95,8,1,14,0.00
2013-4-26,83,65,50,54,49,44,80,59,34,30.16,30.03,8,1,12,0.00
2013-4-27,89,70,53,56,50,46,79,53,27,30.16,29.95,8,1,11,0.00
2013-4-28,91,70,52,59,53,48,86,60,23,30.03,29.80,6,1,9,0.00
2013-4-29,84,73,60,58,55,52,81,55,40,29.89,29.74,9,2,12,0.00
2013-4-30,70,61,56,55,53,52,90,75,55,29.89,29.78,8,2,12,0.00
2013-5-1,87,68,57,55,53,50,86,63,33,30.11,29.88,5,1,9,0.00
2013-5-2,79,64,51,51,38,18,93,53,13,30.12,30.00,14,4,31,0.00
2013-5-3,95,81,64,38,28,20,21,15,11,30.02,29.78,11,3,19,0.09
2013-5-4,78,65,54,54,44,21,81,49,19,29.85,29.69,8,2,12,0.00
2013-5-5,64,58,56,52,50,49,86,75,61,29.95,29.82,11,3,16,0.00
2013-5-6,66,59,54,57,51,45,99,78,50,30.01,29.88,10,2,14,0.00
2013-5-7,70,61,54,54,50,46,91,70,47,30.07,29.95,7,1,11,0.00
2013-5-8,73,62,54,53,49,44,85,65,43,30.10,30.01,11,1,13,0.00
2013-5-9,80,63,50,55,51,24,86,67,13,30.11,29.97,10,1,17,0.00
2013-5-10,87,70,54,59,55,51,91,63,34,30.09,29.95,5,1,8,0.00
2013-5-11,96,75,57,62,55,47,88,55,31,30.09,29.94,6,1,9,0.00
2013-5-12,102,81,62,60,53,35,75,43,11,30.07,29.88,7,1,13,0.00
2013-5-13,101,83,67,56,48,36,55,32,12,29.96,29.85,8,1,18,0.00
2013-5-14,88,73,60,56,49,40,69,45,27,30.01,29.87,8,1,11,0.00
2013-5-15,81,66,54,58,53,47,80,64,44,30.03,29.91,8,1,11,0.00
2013-5-16,78,64,56,58,55,52,87,73,48,29.98,29.85,7,1,8,0.00
2013-5-17,77,65,58,56,54,54,84,70,47,29.95,29.90,7,2,11,0.00
2013-5-18,78,72,59,56,53,50,73,52,44,29.99,29.92,7,2,11,0.00
2013-5-19,71,60,52,55,51,47,87,74,56,30.00,29.92,4,1,7,0.00
2013-5-20,95,72,56,58,53,37,90,56,14,29.95,29.82,8,1,12,0.00
2013-5-21,87,70,60,62,57,47,87,65,40,29.94,29.78,5,1,8,0.00
2013-5-22,79,67,60,58,55,47,92,69,45,29.86,29.73,8,2,12,0.00
2013-5-23,74,63,54,54,50,45,77,62,46,29.95,29.82,8,1,11,0.00
2013-5-24,76,62,50,56,50,46,85,66,42,30.00,29.90,7,1,11,0.00
2013-5-25,77,62,52,55,51,47,92,69,46,30.01,29.93,8,1,11,0.00
2013-5-26,78,63,51,57,52,46,91,68,45,30.04,29.96,8,1,13,0.00
2013-5-27,83,66,53,58,54,49,89,67,37,30.02,29.82,7,1,10,0.00
2013-5-28,86,70,57,58,54,44,92,60,34,29.89,29.70,11,2,14,0.00
2013-5-29,92,76,59,56,50,42,71,43,24,29.79,29.66,8,2,14,0.00
2013-5-30,87,73,58,61,58,53,89,61,40,29.88,29.75,8,1,13,0.00
2013-5-31,64,52,41,59,45,32,89,62,38,29.97,29.86,2,1,2,0.00
2013-6-1,102,76,41,65,58,32,89,57,22,29.97,29.65,5,1,8,0.00
2013-6-2,82,69,61,63,60,57,91,74,49,29.83,29.73,6,2,11,0.00
2013-6-3,81,67,61,60,57,55,85,71,42,29.90,29.77,7,2,10,0.00
2013-6-4,80,67,58,60,57,53,87,72,46,29.98,29.85,7,1,11,0.00
2013-6-5,85,66,57,60,56,53,88,72,42,30.01,29.86,8,1,10,0.00
2013-6-6,82,66,55,61,57,52,94,73,47,29.95,29.81,10,1,14,0.00
2013-6-7,86,68,57,63,58,53,94,74,44,29.92,29.72,7,1,11,0.00
2013-6-8,83,68,60,62,59,57,92,74,46,29.90,29.78,8,2,10,0.00
2013-6-9,73,65,41,59,56,32,85,70,38,29.97,29.84,4,0,5,0.00
2013-6-10,83,68,59,59,55,53,88,66,41,29.95,29.86,8,1,10,0.00
2013-6-11,93,73,56,62,55,50,84,57,32,29.95,29.81,5,1,9,0.00
2013-6-12,83,68,59,62,58,54,89,72,43,30.02,29.89,5,1,11,0.00
2013-6-13,85,70,60,62,58,54,91,70,44,30.01,29.85,6,1,9,0.00
2013-6-14,85,69,56,60,55,46,90,65,29,29.92,29.79,8,1,11,0.00
2013-6-15,83,68,59,60,55,37,91,66,23,29.97,29.86,8,1,11,0.00
2013-6-16,88,70,56,60,55,50,89,64,32,30.03,29.89,5,1,11,0.00
2013-6-17,92,73,56,60,54,44,89,58,19,29.97,29.82,7,1,11,3.77
2013-6-26,94,82,41,64,60,32,63,49,38,29.97,29.86,4,1,7,0.00
2013-6-27,100,82,66,67,62,56,79,53,32,30.00,29.92,7,1,11,0.00
2013-6-28,101,84,67,69,60,55,67,47,32,29.99,29.82,5,1,10,0.00
2013-6-29,106,87,62,64,60,53,86,43,20,29.94,29.69,6,1,10,0.00
2013-6-30,103,84,71,66,62,57,69,51,25,29.82,29.69,8,1,11,0.00
2013-7-1,96,82,68,63,60,51,76,51,25,29.88,29.77,8,1,11,0.00
2013-7-2,94,80,68,66,60,54,71,52,31,29.95,29.86,7,1,11,0.00
2013-7-3,97,78,67,66,58,52,74,53,27,29.91,29.75,8,1,11,0.00
2013-7-4,95,78,65,65,57,46,78,53,24,29.83,29.68,7,1,9,0.00
2013-7-5,89,75,63,64,58,45,90,61,22,29.85,29.71,8,1,11,0.00
2013-7-6,93,74,64,66,62,57,91,68,36,29.82,29.69,6,1,9,0.00
2013-7-7,94,74,62,66,58,37,91,61,15,29.86,29.71,6,1,9,0.00
2013-7-8,98,72,63,61,56,44,72,59,19,29.89,29.83,6,1,8,0.00
2013-7-9,41,41,41,32,32,32,38,38,38,29.97,29.97,1,1,0,0.00
2013-7-11,77,74,68,66,64,62,83,72,65,29.93,29.88,4,1,8,0.00
2013-7-12,91,74,64,67,62,56,92,68,36,29.94,29.80,7,1,10,0.00
2013-7-13,95,77,61,64,57,52,74,53,33,29.96,29.81,8,1,12,0.00
2013-7-14,98,78,62,64,58,50,80,54,26,29.95,29.76,6,1,11,0.00
2013-7-15,93,76,63,61,54,45,76,51,22,29.87,29.76,6,1,10,0.00
2013-7-16,93,74,56,56,46,31,67,41,15,29.98,29.84,8,1,10,0.00
2013-7-17,96,76,60,51,41,29,47,30,13,30.02,29.91,7,1,11,3.01
2013-7-18,95,76,60,62,49,31,53,39,26,29.99,29.81,7,1,8,0.00
2013-7-19,93,76,61,61,55,48,72,50,28,29.90,29.76,8,1,11,0.00
2013-7-20,89,72,61,66,61,55,90,70,42,29.89,29.72,8,1,11,0.00
2013-7-21,78,73,68,65,64,62,85,74,64,29.89,29.79,4,1,7,0.00
2013-7-24,92,62,41,61,47,32,73,46,34,29.97,29.84,8,1,13,0.00
2013-7-25,73,66,62,62,58,56,83,77,66,30.00,29.92,3,0,4,0.00
2013-7-26,86,76,41,65,62,32,81,63,38,30.04,29.94,5,1,8,0.00
2013-7-27,92,76,67,64,62,60,82,63,36,30.01,29.82,5,2,10,0.00
2013-7-28,85,71,61,63,58,52,93,68,35,29.94,29.80,7,1,11,0.00
2013-7-29,87,71,60,60,57,47,93,65,26,30.02,29.90,9,1,12,0.00
2013-7-30,88,74,59,60,56,45,85,57,24,30.11,29.97,8,1,12,0.00
2013-7-31,75,75,75,58,58,58,55,55,55,30.01,30.01,0,0,2,0.00
2013-8-1,86,70,55,61,57,52,93,65,40,30.04,29.86,6,1,10,0.00
2013-8-2,87,70,56,62,57,52,89,66,41,29.98,29.84,6,1,11,0.00
2013-8-3,90,70,58,62,58,53,91,68,38,30.00,29.87,5,1,9,0.00
2013-8-4,90,70,56,60,55,48,91,64,28,30.01,29.88,7,1,11,0.00
2013-8-5,92,72,56,60,49,42,78,49,21,30.00,29.86,5,1,11,0.00
2013-8-6,88,70,55,60,52,42,86,56,29,30.03,29.92,8,1,11,0.00
2013-8-7,88,70,55,60,53,46,79,57,30,30.06,29.91,8,1,11,0.00
2013-8-8,87,70,56,61,54,48,79,59,34,30.00,29.87,8,1,10,0.00
2013-8-9,73,61,55,59,54,51,88,77,61,29.95,29.92,7,0,8,0.00
2013-8-11,88,77,64,60,56,53,69,49,32,29.94,29.84,4,1,7,0.00
2013-8-12,92,72,57,63,57,53,86,63,36,29.97,29.84,7,1,9,0.00
2013-8-13,95,74,58,64,58,54,89,62,33,29.97,29.81,4,1,7,0.00
2013-8-14,99,76,58,63,58,49,91,60,21,29.92,29.76,4,1,6,0.00
2013-8-15,97,77,61,64,58,39,88,57,14,29.95,29.82,8,1,10,0.00
2013-8-16,98,80,65,63,52,45,64,41,23,29.95,29.84,5,1,7,0.00
2013-8-17,99,81,65,58,51,45,56,38,18,29.95,29.75,4,1,8,0.00
2013-8-18,97,85,71,62,55,43,71,39,19,29.90,29.73,5,2,8,0.00
2013-8-19,86,74,65,63,61,56,86,66,45,29.91,29.79,2,0,4,0.00
2013-8-20,96,76,61,62,56,51,76,53,25,29.91,29.79,8,1,11,0.00
2013-8-21,98,78,61,60,52,36,69,44,12,29.92,29.79,5,1,8,0.00
2013-8-22,100,81,63,55,48,36,59,35,12,29.93,29.77,6,1,10,0.00
2013-8-23,98,78,62,60,47,38,50,35,13,29.87,29.70,5,1,8,0.00
2013-8-24,96,76,58,56,44,36,50,34,13,29.88,29.69,8,1,11,0.37
2013-8-25,96,77,59,60,45,30,55,33,18,29.92,29.77,5,1,10,0.00
2013-8-26,94,80,66,65,50,31,53,36,24,29.92,29.77,12,1,15,0.00
2013-8-27,96,82,73,65,59,49,63,47,30,29.83,29.72,4,1,11,0.00
2013-8-28,99,82,69,64,58,39,74,46,22,29.89,29.75,6,1,8,0.00
2013-8-29,104,85,69,61,53,43,63,37,13,29.93,29.81,4,1,9,0.00
2013-8-30,96,85,74,70,62,49,65,47,34,29.96,29.88,7,1,12,0.00
2013-8-31,95,84,75,71,69,67,78,62,44,29.95,29.83,4,1,8,0.00
2013-9-1,93,81,73,71,68,66,81,66,48,29.92,29.80,4,1,9,0.00
2013-9-2,96,84,75,70,66,62,75,56,39,29.88,29.76,3,1,8,0.00
2013-9-3,100,83,70,65,61,55,66,49,31,29.88,29.78,5,1,8,0.00
2013-9-4,103,85,71,63,58,51,63,42,23,29.91,29.77,6,1,78,0.77
2013-9-5,102,86,72,80,53,37,54,34,15,29.87,29.77,4,1,8,0.00
2013-9-6,104,83,70,55,50,43,51,35,13,29.87,29.73,4,1,8,0.00
2013-9-7,102,84,72,61,47,33,45,29,13,29.85,29.73,5,1,8,0.00
2013-9-8,97,80,67,59,49,41,52,36,21,29.85,29.70,5,1,8,0.00
2013-9-9,94,76,67,61,54,37,68,48,14,29.80,29.68,6,1,8,0.00
2013-9-10,87,70,59,61,55,48,92,61,33,29.94,29.79,7,1,10,0.00
2013-9-11,87,70,58,62,58,53,87,67,41,29.99,29.86,4,1,8,0.00
2013-9-12,95,74,58,61,53,43,82,53,20,29.95,29.78,4,1,7,0.00
2013-9-13,96,78,63,58,50,46,58,39,25,29.82,29.62,4,1,7,0.00
2013-9-14,101,87,41,61,55,32,48,35,24,29.97,29.57,3,1,6,0.00
2013-9-15,100,80,64,64,55,48,65,44,22,29.77,29.64,4,1,8,0.00
2013-9-16,100,80,64,59,49,40,50,37,15,29.82,29.67,5,1,8,0.00
2013-9-17,88,73,60,59,52,44,70,50,22,29.82,29.67,7,1,11,0.00
2013-9-18,86,69,59,61,58,54,90,70,44,29.80,29.68,9,1,11,0.14
2013-9-19,92,71,58,64,59,55,88,68,36,29.83,29.00,50,2,114,0.00
2013-9-20,77,67,61,63,61,58,94,82,62,29.88,29.80,6,2,10,0.00
2013-9-21,80,68,59,60,58,55,86,71,47,29.83,29.77,4,2,8,0.00
2013-9-22,83,69,56,55,45,31,93,46,21,29.83,29.73,11,3,20,0.00
2013-9-23,95,77,60,52,40,31,65,30,13,29.88,29.77,8,2,13,0.00
2013-9-24,94,75,61,46,41,32,52,32,15,29.93,29.79,4,1,9,0.00
2013-9-25,78,66,56,60,54,45,81,66,47,29.86,29.66,8,2,11,0.00
2013-9-26,77,65,54,55,42,25,80,47,15,29.91,29.72,11,2,21,0.00
2013-9-27,83,70,54,38,29,23,52,24,12,29.99,29.88,14,3,25,0.00
2013-9-28,90,72,56,35,29,20,38,22,11,30.05,29.92,8,1,10,0.11
2013-9-29,92,72,56,40,29,23,43,22,11,30.07,29.90,5,1,8,0.16
2013-9-30,92,72,54,54,43,33,62,38,15,30.00,29.79,6,1,10,0.27
2013-10-1,64,64,64,50,50,50,62,62,62,29.89,29.89,1,1,2,0.00
2013-10-3,78,69,57,60,57,53,89,67,48,29.90,29.77,4,2,8,0.00
2013-10-4,81,70,55,55,31,18,97,33,12,30.05,29.87,18,7,34,0.00
2013-10-5,85,77,71,31,26,21,18,15,12,30.13,30.02,18,8,27,0.00
2013-10-6,94,78,64,38,27,19,21,15,11,30.10,29.92,11,3,19,0.00
2013-10-7,89,71,59,44,29,19,37,22,12,29.98,29.84,8,1,10,0.00
2013-10-8,76,63,51,56,47,31,82,58,33,29.94,29.77,9,2,13,0.00
2013-10-9,62,57,50,54,50,43,92,78,51,29.83,29.67,6,2,8,0.04
2013-10-10,66,55,45,50,47,43,95,76,52,30.02,29.80,6,1,9,0.33
2013-10-11,74,58,41,54,48,32,88,70,38,30.02,29.91,3,1,4,0.00
2013-10-12,82,63,51,53,46,38,73,55,25,29.98,29.82,4,1,8,0.01
2013-10-13,71,60,52,55,52,40,94,74,48,30.04,29.91,4,1,8,0.00
2013-10-14,83,68,50,53,38,24,98,45,14,30.04,29.87,15,4,25,0.00
2013-10-15,85,75,66,35,27,22,26,17,13,29.99,29.84,14,5,19,0.00
2013-10-16,85,73,61,33,25,20,26,17,13,30.06,29.95,13,4,23,0.00
2013-10-17,86,67,53,41,32,24,44,28,14,30.04,29.88,5,1,10,0.00
2013-10-18,90,69,51,54,39,28,59,36,11,30.01,29.87,6,1,10,0.00
2013-10-19,91,70,54,45,34,26,43,28,11,30.02,29.90,6,1,8,0.34
2013-10-20,85,67,53,54,38,28,56,36,18,29.99,29.84,6,1,98,0.34
2013-10-21,86,65,32,57,44,12,79,49,20,30.00,29.84,5,1,8,0.34
2013-10-26,140,76,41,100,41,25,89,30,20,29.99,29.88,3,1,4,0.34
2013-10-27,81,67,55,56,42,29,90,44,27,30.00,29.77,4,1,8,0.00
2013-10-28,66,57,52,55,48,39,90,72,38,29.94,29.79,8,3,15,0.34
2013-10-29,66,56,47,50,47,43,91,74,47,30.02,29.90,5,1,9,0.34
2013-10-30,64,49,45,57,44,42,91,82,51,30.05,29.97,4,1,9,0.34
2013-10-31,81,77,72,37,28,22,22,17,15,29.99,29.95,8,4,14,0.00
2013-11-1,85,77,56,38,31,25,41,19,14,30.10,29.92,10,3,19,0.00
2013-11-2,84,67,54,47,35,27,69,33,16,30.02,29.82,6,1,10,0.00
2013-11-3,72,62,54,56,53,42,90,75,48,29.93,29.79,6,2,10,0.00
2013-11-4,71,60,51,55,50,33,96,70,38,29.95,29.77,6,1,8,0.00
2013-11-5,74,66,57,33,23,20,38,20,14,30.13,29.94,14,6,23,0.00
2013-11-6,80,71,64,28,23,19,19,16,13,30.18,30.09,16,8,26,0.00
2013-11-7,87,72,58,36,26,19,27,18,14,30.11,29.96,8,2,14,0.00
2013-11-8,82,66,53,45,32,20,53,31,14,30.03,29.88,6,1,9,0.00
2013-11-9,80,63,48,43,32,23,54,34,14,30.08,29.95,5,1,8,0.00
2013-11-10,85,63,50,51,37,28,68,42,14,30.12,29.98,4,1,6,0.00
2013-11-11,87,64,49,46,38,31,71,41,15,30.14,29.97,5,1,8,0.00
2013-11-12,85,70,54,48,36,24,53,32,14,30.16,30.02,13,2,17,0.00
2013-11-13,90,82,76,36,29,26,17,15,13,30.04,29.87,13,6,23,0.00
2013-11-14,91,77,60,42,32,26,37,21,12,29.91,29.75,7,2,10,0.00
2013-11-15,69,60,52,55,50,34,85,71,38,29.77,29.64,8,1,11,0.00
2013-11-16,61,58,53,55,51,48,92,79,66,29.93,29.74,7,1,11,0.00
2013-11-17,69,58,50,52,49,46,91,74,47,30.10,29.93,6,1,8,0.00
2013-11-18,70,57,48,54,50,45,89,77,52,30.15,30.01,4,1,7,0.00
2013-11-19,68,57,49,52,50,47,95,78,55,30.10,29.91,6,1,8,0.00
2013-11-20,64,57,52,55,52,48,99,85,68,29.98,29.86,4,1,6,0.16
2013-11-21,66,56,-32,59,52,-100,99,87,1,30.08,29.79,100,3,100,0.02
2013-11-22,55,52,50,44,40,38,71,63,55,29.97,29.84,20,10,40,0.92
2013-11-23,58,54,51,41,40,38,65,60,48,30.09,29.95,14,8,30,0.00
2013-11-24,67,58,52,42,40,37,66,53,34,30.19,30.07,11,4,21,0.00
2013-11-25,75,61,56,41,37,31,55,42,20,30.21,30.11,11,5,15,0.00
2013-11-26,65,62,58,42,40,38,55,45,37,30.07,30.05,2,1,4,0.00
2013-11-27,74,61,50,45,39,29,67,47,20,30.06,29.85,6,1,9,0.00
2013-11-28,69,57,48,46,41,37,74,57,32,30.06,29.89,7,1,98,0.95
2013-11-29,65,57,51,53,49,43,89,74,55,30.19,30.05,4,1,8,0.06
2013-11-30,75,65,52,47,37,30,82,39,21,30.18,30.03,11,4,19,0.00
2013-12-1,76,68,56,34,29,21,39,24,14,30.20,30.07,13,5,26,0.00
2013-12-2,76,62,52,39,32,25,48,32,17,30.14,29.91,5,1,11,0.00
2013-12-3,65,55,47,52,44,32,83,66,44,29.91,29.72,7,2,10,0.00
2013-12-4,60,50,39,42,21,15,82,35,20,29.97,29.78,11,3,23,0.00
2013-12-5,59,48,38,34,27,16,71,47,25,30.11,29.94,6,2,10,0.00
2013-12-7,55,45,42,49,37,24,99,75,46,30.12,29.96,10,2,17,0.23
2013-12-8,56,45,34,30,22,10,66,43,24,30.22,30.07,11,2,17,0.00
2013-12-9,53,48,43,14,12,7,25,23,21,30.31,30.19,21,11,36,0.09
2013-12-10,61,52,47,19,14,12,24,22,19,30.27,30.07,23,8,34,0.04
2013-12-11,67,58,46,20,17,8,24,20,16,30.18,30.08,14,6,24,0.00
2013-12-12,72,59,47,37,24,14,67,30,13,30.21,30.07,11,2,21,0.00
2013-12-13,69,52,42,42,36,18,86,59,19,30.24,30.07,4,1,8,0.00
2013-12-14,70,66,61,21,19,18,20,17,14,30.27,30.17,18,8,27,0.00
2013-12-15,76,68,62,26,20,18,20,16,13,30.23,30.05,17,9,36,0.00
2013-12-16,82,73,64,26,22,18,22,15,12,30.13,30.02,17,6,26,0.00
2013-12-17,84,73,63,32,25,18,31,17,12,30.12,29.98,11,3,22,0.00
2013-12-18,72,62,52,51,42,25,89,51,19,30.01,29.83,6,1,9,0.00
2013-12-19,54,50,44,50,45,39,91,85,70,29.85,29.68,6,1,8,0.07
2013-12-20,64,53,44,40,34,21,84,52,21,29.96,29.78,11,2,17,0.00
2013-12-21,62,50,41,47,42,35,93,77,55,30.09,29.91,4,1,6,0.00
2013-12-22,72,55,43,50,44,37,95,69,28,30.28,30.09,3,1,6,1.44
2013-12-23,73,64,49,43,32,27,78,33,19,30.29,30.17,15,5,25,0.00
2013-12-24,79,70,61,34,29,24,32,22,14,30.18,30.04,14,7,27,0.00
2013-12-25,74,70,66,26,22,18,20,17,13,30.19,30.09,20,10,35,0.00
2013-12-27,70,66,59,21,19,17,22,17,13,30.07,30.04,5,1,9,0.00
2013-12-28,76,64,59,26,20,18,21,19,13,30.04,29.88,3,1,4,0.00
2013-12-29,72,66,61,20,19,16,19,16,12,30.12,30.00,24,7,32,0.35
2013-12-30,77,61,48,26,18,13,25,19,13,30.22,30.11,9,3,9,0.00
2013-12-31,72,53,0,29,20,15,46,27,15,30.17,29.82,12,1,12,0.00
2014-1-1,80,62,43,30,24,18,55,28,13,30.10,29.79,23,5,23,0.00
2014-1-2,80,70,57,29,23,19,32,17,13,30.11,29.93,24,5,24,0.00